Weather History for Ramona, CA

Change the Weather History Date:

Tuesday, December 3, 2013

  Actual Average Record
Temperature  
Mean Temperature 49 °F 50 °F  
Max Temperature 64 °F 66 °F 84 °F (1981)
Min Temperature 34 °F 35 °F 28 °F (2003)
Degree Days  
Heating Degree Days 16 14  
Month to date heating degree days 32 42  
Since 1 July heating degree days 461 453  
Cooling Degree Days 0 0  
Month to date cooling degree days 0 0  
Year to date cooling degree days 898 850  
Moisture  
Dew Point 45 °F    
Average Humidity 63    
Maximum Humidity 75    
Minimum Humidity 50    
Precipitation  
Precipitation 0.00 in 0.05 in 0.69 in (1985)
Month to date precipitation 0.00 0.15  
Year to date precipitation 6.42 13.96  
Since 1 July precipitation 1.92 2.63  
Snow  
Snow 0.00 in - - ()
Month to date snowfall 0.0  
Year to date snowfall 0.0  
Since 1 July snowfall 0.0  
Snow Depth 0.00 in    
Sea Level Pressure  
Sea Level Pressure 29.82 in    
Wind  
Wind Speed 5 mph (SSW)    
Max Wind Speed 14 mph    
Max Gust Speed 36 mph    
Visibility 8 miles    
Events Rain    
T = Trace of Precipitation, MM = Missing Value Source: NWS Daily Summary

Daily Weather History Graph

Daily Weather History Graph

Search for Another Location

Airport:

Trip Planner

Search our weather history database for the weather conditions in past years. The results will help you decide how hot, cold, wet, or windy it might be!

Date:

Astronomy

Dec. 03, 2013 Rise Set
Actual Time 6:34 AM PST 4:40 PM PST
Civil Twilight 6:07 AM PST 5:07 PM PST
Nautical Twilight 5:36 AM PST 5:38 PM PST
Astronomical Twilight 5:06 AM PST 6:08 PM PST
Moon 7:09 AM PST (12/3) 5:47 PM PST (12/3)
Length of Visible Light 11h 00m
Length of Day
10h 05m
New Moon, 1% of the Moon is Illuminated
Dec 3
New Moon
Dec 9
First Quarter
Dec 17
Full
Dec 25
Last Quarter
Jan 1
New

Hourly Weather History & Observations

Time (PST) Temp. Windchill Dew Point Humidity Pressure Visibility Wind Dir Wind Speed Gust Speed Precip Events Conditions
12:53 AM 42.1 °F - 30.9 °F 65% 29.91 in 10.0 mi Calm Calm - N/A   Clear
1:53 AM 41.0 °F - 30.0 °F 65% 29.90 in 10.0 mi Calm Calm - N/A   Clear
2:53 AM 37.0 °F - 28.9 °F 73% 29.89 in 10.0 mi Calm Calm - N/A   Clear
3:53 AM 36.0 °F - 28.9 °F 76% 29.88 in 10.0 mi Calm Calm - N/A   Clear
4:53 AM 37.0 °F 33.3 °F 28.9 °F 73% 29.86 in 10.0 mi ESE 4.6 mph - N/A   Clear
5:53 AM 35.1 °F - 28.0 °F 76% 29.86 in 10.0 mi Calm Calm - N/A   Clear
6:53 AM 39.0 °F 36.8 °F 28.9 °F 67% 29.87 in 10.0 mi ENE 3.5 mph - N/A   Clear
7:53 AM 50.0 °F - 32.0 °F 50% 29.88 in 10.0 mi Calm Calm - N/A   Clear
8:53 AM 55.9 °F - 46.9 °F 72% 29.88 in 10.0 mi North - - N/A   Clear
9:53 AM 57.9 °F - 48.0 °F 70% 29.89 in 10.0 mi SSE 8.1 mph - N/A   Partly Cloudy
10:53 AM 61.0 °F - 45.0 °F 56% 29.85 in 10.0 mi SSW 8.1 mph - N/A   Clear
11:53 AM 64.0 °F - 48.0 °F 56% 29.82 in 10.0 mi SSW 10.4 mph - N/A   Clear
12:53 PM 62.1 °F - 48.0 °F 60% 29.80 in 10.0 mi SW 10.4 mph - N/A   Mostly Cloudy
1:53 PM 59.0 °F - 46.9 °F 64% 29.80 in 10.0 mi SSW 10.4 mph - N/A   Overcast
2:53 PM 57.9 °F - 46.9 °F 67% 29.79 in 10.0 mi SSW 10.4 mph - N/A   Overcast
3:53 PM 57.0 °F - 48.0 °F 72% 29.79 in 10.0 mi SSW 8.1 mph - N/A   Overcast
4:53 PM 55.0 °F - 46.9 °F 74% 29.79 in 10.0 mi SSW 8.1 mph - N/A   Overcast
5:37 PM 53.6 °F - 50.0 °F 88% 29.80 in 4.0 mi South 6.9 mph - 0.00 in Rain Light Rain
5:44 PM 53.6 °F - 50.0 °F 88% 29.81 in 4.0 mi South 6.9 mph - 0.00 in Rain Light Rain
5:53 PM 53.1 °F - 51.1 °F 93% 29.80 in 3.0 mi South 9.2 mph - 0.00 in Rain Light Rain
6:11 PM 53.6 °F - 50.0 °F 88% 29.80 in 8.0 mi SSW 6.9 mph - 0.01 in   Overcast
6:50 PM 53.6 °F - 51.8 °F 94% 29.80 in 7.0 mi South 6.9 mph - 0.01 in   Overcast
6:53 PM 53.1 °F - 51.1 °F 93% 29.79 in 6.0 mi South 9.2 mph - 0.01 in   Overcast
7:53 PM 53.1 °F - 51.1 °F 93% 29.79 in 7.0 mi SSW 5.8 mph - 0.00 in Rain Light Rain
8:19 PM 53.6 °F - 51.8 °F 94% 29.81 in 7.0 mi SSW 8.1 mph - 0.01 in   Overcast
8:53 PM 53.1 °F - 51.1 °F 93% 29.79 in 6.0 mi SSW 8.1 mph - 0.01 in   Overcast
9:07 PM 53.6 °F - 51.8 °F 94% 29.80 in 8.0 mi SW 8.1 mph - N/A   Overcast
9:14 PM 53.6 °F - 51.8 °F 94% 29.81 in 7.0 mi SW 9.2 mph - N/A   Overcast
9:53 PM 54.0 °F - 51.1 °F 90% 29.78 in 4.0 mi SW 12.7 mph - 0.02 in Rain Light Rain
10:20 PM 53.6 °F - 51.8 °F 94% 29.81 in 10.0 mi WSW 11.5 mph - 0.00 in   Overcast
10:32 PM 53.6 °F - 50.0 °F 88% 29.81 in 10.0 mi SW 10.4 mph - 0.00 in   Overcast
10:53 PM 52.0 °F - 48.9 °F 89% 29.79 in 10.0 mi WSW 12.7 mph - 0.00 in   Overcast
11:07 PM 51.8 °F - 48.2 °F 88% 29.81 in 9.0 mi WSW 13.8 mph - N/A   Overcast
11:20 PM 51.8 °F - 50.0 °F 94% 29.81 in 5.0 mi WSW 13.8 mph 21.9 mph 0.00 in Rain Light Rain
11:46 PM 51.8 °F - 48.2 °F 88% 29.81 in 10.0 mi WSW 11.5 mph - 0.00 in   Overcast
11:53 PM 52.0 °F - 48.9 °F 89% 29.79 in 10.0 mi SW 15.0 mph 21.9 mph 0.00 in   Overcast